Find Starlink 30564

NORAD ID: 58043 Int'l Des: 2023-156 Owner: SPXS Country: US Constellation: starlink operational
LEOCIRCULAR

Current View

Loading 3D Globe...

About Starlink 30564

Starlink 30564 (NORAD 58043) is a starlink constellation satellite (v2 mini) launched Oct 9, 2023 by SPXS of US. It operates in LEO, CIRCULAR orbit with a mass of 730.00 kg.

About Starlink 30564

Description loading...

Upcoming Passes

Passes for default location (London). Set your location on the main map for personalized predictions.

Altitude History

Loading altitude history...

Two-Line Element Set

1 58043U 23156R 26170.13468815 .00009321 00000-0 32652-3 0 9995
2 58043 53.1584 327.2834 0001175 47.9615 312.1486 15.30189825151849
Epoch: Jun 19, 2026 • Age: 17 hours

Current Status

Altitude 476.2 km
Velocity 7.63 km/s
Sub-Earth Point -3.66°S, 106.31°E
Launch Date Oct 9, 2023
Age 2.6 years
Type internet

Technical Details

Classification Payload
Mass 730.00 kg
Dry Mass 700.00 kg
Total Mass 730.00 kg
Length 0.30 m
Diameter 4.10 m
Span 29.00 m
Shape Box + pan
Manufacturer SPXS
Bus Type Starlink V2M
Phase Status In Orbit
Owner/State SPXS/US

Most Searched